カタログに戻る

STARLINK-31071

運用中通信VLEO
NORAD 58602·PAYLOAD·🇺🇸 United States

打ち上げ Dec 19, 2023 から Cape Canaveral Space Force Station

Loading…

次のパス (今後24時間)

TLE

最新Source: CelesTrak SupGP

元期: Sep 14, 2026, 21:18 UTC

1 58602C 23200P   26257.88798611  .00044048  00000+0  15954-2 0  2570
2 58602  43.0045  20.1858 0001967 273.8708 163.2860 15.27557200    12

AllMySatでSTARLINK-31071をリアルタイム追跡

Download on the App Store